owner,sensor,date,latitude,longitude,vertical_datum,sea_water_temperature,qcFlag 
DISL,ioos:station:DISL:MBLA:1,2015-04-01T00:03:00Z,30.4367,-88.0117,0.5,17.99,2 
DISL,ioos:station:DISL:MBLA:1,2015-04-01T00:05:00Z,30.4367,-88.0117,0.5,18.98,2 
DISL,ioos:station:DISL:MBLA:1,2015-04-01T00:07:00Z,30.4367,-88.0117,0.5,19.84,2 
DISL,ioos:station:DISL:MBLA:1,2015-04-01T00:10:00Z,30.4367,-88.0117,0.5,19.96,2 
DISL,ioos:station:DISL:MBLA:1,2015-04-01T00:12:00Z,30.4367,-88.0117,0.5,19.98,2 
DISL,ioos:station:DISL:MBLA:1,2015-04-01T00:15:00Z,30.4367,-88.0117,0.5,19.97,2 
DISL,ioos:station:DISL:MBLA:1,2015-04-01T01:02:00Z,30.4367,-88.0117,0.5,18.0,2 
DISL,ioos:station:DISL:MBLA:1,2015-04-01T01:05:00Z,30.4367,-88.0117,0.5,18.68,2 
DISL,ioos:station:DISL:MBLA:1,2015-04-01T01:07:00Z,30.4367,-88.0117,0.5,19.26,2 
DISL,ioos:station:DISL:MBLA:1,2015-04-01T01:10:00Z,30.4367,-88.0117,0.5,19.56,2 
DISL,ioos:station:DISL:MBLA:1,2015-04-01T01:12:00Z,30.4367,-88.0117,0.5,19.76,2 
DISL,ioos:station:DISL:MBLA:1,2015-04-01T01:15:00Z,30.4367,-88.0117,0.5,19.82,2 
DISL,ioos:station:DISL:MBLA:1,2015-04-01T02:02:00Z,30.4367,-88.0117,0.5,18.44,2 
DISL,ioos:station:DISL:MBLA:1,2015-04-01T02:05:00Z,30.4367,-88.0117,0.5,19.08,2 
DISL,ioos:station:DISL:MBLA:1,2015-04-01T02:07:00Z,30.4367,-88.0117,0.5,19.39,2 
DISL,ioos:station:DISL:MBLA:1,2015-04-01T02:10:00Z,30.4367,-88.0117,0.5,19.57,2 
DISL,ioos:station:DISL:MBLA:1,2015-04-01T02:13:00Z,30.4367,-88.0117,0.5,19.66,2 
DISL,ioos:station:DISL:MBLA:1,2015-04-01T02:15:00Z,30.4367,-88.0117,0.5,19.71,2 
DISL,ioos:station:DISL:MBLA:1,2015-04-01T03:02:00Z,30.4367,-88.0117,0.5,18.1,2 
DISL,ioos:station:DISL:MBLA:1,2015-04-01T03:08:00Z,30.4367,-88.0117,0.5,19.41,2 
DISL,ioos:station:DISL:MBLA:1,2015-04-01T03:10:00Z,30.4367,-88.0117,0.5,19.51,2 
DISL,ioos:station:DISL:MBLA:1,2015-04-01T03:12:00Z,30.4367,-88.0117,0.5,19.56,2 
DISL,ioos:station:DISL:MBLA:1,2015-04-01T03:15:00Z,30.4367,-88.0117,0.5,19.55,2 
DISL,ioos:station:DISL:MBLA:1,2015-04-01T04:02:00Z,30.4367,-88.0117,0.5,18.82,2 
DISL,ioos:station:DISL:MBLA:1,2015-04-01T04:05:00Z,30.4367,-88.0117,0.5,19.36,2 
DISL,ioos:station:DISL:MBLA:1,2015-04-01T04:07:00Z,30.4367,-88.0117,0.5,19.41,2 
DISL,ioos:station:DISL:MBLA:1,2015-04-01T04:10:00Z,30.4367,-88.0117,0.5,19.43,2 
DISL,ioos:station:DISL:MBLA:1,2015-04-01T04:12:00Z,30.4367,-88.0117,0.5,19.44,2 
DISL,ioos:station:DISL:MBLA:1,2015-04-01T04:15:00Z,30.4367,-88.0117,0.5,19.45,2 
DISL,ioos:station:DISL:MBLA:1,2015-04-01T05:02:00Z,30.4367,-88.0117,0.5,19.18,2 
DISL,ioos:station:DISL:MBLA:1,2015-04-01T05:05:00Z,30.4367,-88.0117,0.5,19.38,2 
DISL,ioos:station:DISL:MBLA:1,2015-04-01T05:08:00Z,30.4367,-88.0117,0.5,19.39,2 
DISL,ioos:station:DISL:MBLA:1,2015-04-01T05:10:00Z,30.4367,-88.0117,0.5,19.4,2 
DISL,ioos:station:DISL:MBLA:1,2015-04-01T05:12:00Z,30.4367,-88.0117,0.5,19.4,2 
DISL,ioos:station:DISL:MBLA:1,2015-04-01T05:15:00Z,30.4367,-88.0117,0.5,19.4,2 
DISL,ioos:station:DISL:MBLA:1,2015-04-01T06:02:00Z,30.4367,-88.0117,0.5,19.01,2 
DISL,ioos:station:DISL:MBLA:1,2015-04-01T06:05:00Z,30.4367,-88.0117,0.5,19.18,2 
DISL,ioos:station:DISL:MBLA:1,2015-04-01T06:07:00Z,30.4367,-88.0117,0.5,19.21,2 
DISL,ioos:station:DISL:MBLA:1,2015-04-01T06:10:00Z,30.4367,-88.0117,0.5,19.24,2 
DISL,ioos:station:DISL:MBLA:1,2015-04-01T06:12:00Z,30.4367,-88.0117,0.5,19.26,2 
DISL,ioos:station:DISL:MBLA:1,2015-04-01T06:15:00Z,30.4367,-88.0117,0.5,19.26,2 
DISL,ioos:station:DISL:MBLA:1,2015-04-01T07:03:00Z,30.4367,-88.0117,0.5,19.23,2 
DISL,ioos:station:DISL:MBLA:1,2015-04-01T07:07:00Z,30.4367,-88.0117,0.5,19.39,2 
DISL,ioos:station:DISL:MBLA:1,2015-04-01T07:10:00Z,30.4367,-88.0117,0.5,19.39,2 
DISL,ioos:station:DISL:MBLA:1,2015-04-01T07:13:00Z,30.4367,-88.0117,0.5,19.39,2 
DISL,ioos:station:DISL:MBLA:1,2015-04-01T07:15:00Z,30.4367,-88.0117,0.5,19.39,2 
DISL,ioos:station:DISL:MBLA:1,2015-04-01T08:02:00Z,30.4367,-88.0117,0.5,19.39,2 
DISL,ioos:station:DISL:MBLA:1,2015-04-01T08:05:00Z,30.4367,-88.0117,0.5,19.48,2 
DISL,ioos:station:DISL:MBLA:1,2015-04-01T08:07:00Z,30.4367,-88.0117,0.5,19.48,2 
DISL,ioos:station:DISL:MBLA:1,2015-04-01T08:10:00Z,30.4367,-88.0117,0.5,19.48,2 
DISL,ioos:station:DISL:MBLA:1,2015-04-01T08:12:00Z,30.4367,-88.0117,0.5,19.48,2 
DISL,ioos:station:DISL:MBLA:1,2015-04-01T08:15:00Z,30.4367,-88.0117,0.5,19.5,2 
DISL,ioos:station:DISL:MBLA:1,2015-04-01T09:02:00Z,30.4367,-88.0117,0.5,19.68,2 
DISL,ioos:station:DISL:MBLA:1,2015-04-01T09:05:00Z,30.4367,-88.0117,0.5,19.72,2 
DISL,ioos:station:DISL:MBLA:1,2015-04-01T09:07:00Z,30.4367,-88.0117,0.5,19.73,2 
DISL,ioos:station:DISL:MBLA:1,2015-04-01T09:10:00Z,30.4367,-88.0117,0.5,19.73,2 
DISL,ioos:station:DISL:MBLA:1,2015-04-01T09:12:00Z,30.4367,-88.0117,0.5,19.73,2 
DISL,ioos:station:DISL:MBLA:1,2015-04-01T09:15:00Z,30.4367,-88.0117,0.5,19.73,2 
DISL,ioos:station:DISL:MBLA:1,2015-04-01T10:03:00Z,30.4367,-88.0117,0.5,19.76,2 
DISL,ioos:station:DISL:MBLA:1,2015-04-01T10:05:00Z,30.4367,-88.0117,0.5,19.75,2 
DISL,ioos:station:DISL:MBLA:1,2015-04-01T10:07:00Z,30.4367,-88.0117,0.5,19.71,2 
DISL,ioos:station:DISL:MBLA:1,2015-04-01T10:10:00Z,30.4367,-88.0117,0.5,19.6,2 
DISL,ioos:station:DISL:MBLA:1,2015-04-01T10:12:00Z,30.4367,-88.0117,0.5,19.38,2 
DISL,ioos:station:DISL:MBLA:1,2015-04-01T10:15:00Z,30.4367,-88.0117,0.5,19.15,2 
DISL,ioos:station:DISL:MBLA:1,2015-04-01T11:02:00Z,30.4367,-88.0117,0.5,19.69,2 
DISL,ioos:station:DISL:MBLA:1,2015-04-01T11:05:00Z,30.4367,-88.0117,0.5,19.75,2 
DISL,ioos:station:DISL:MBLA:1,2015-04-01T11:07:00Z,30.4367,-88.0117,0.5,19.71,2 
DISL,ioos:station:DISL:MBLA:1,2015-04-01T11:10:00Z,30.4367,-88.0117,0.5,19.6,2 
DISL,ioos:station:DISL:MBLA:1,2015-04-01T11:12:00Z,30.4367,-88.0117,0.5,19.45,2 
DISL,ioos:station:DISL:MBLA:1,2015-04-01T11:15:00Z,30.4367,-88.0117,0.5,19.38,2 
DISL,ioos:station:DISL:MBLA:1,2015-04-01T12:02:00Z,30.4367,-88.0117,0.5,19.64,2 
DISL,ioos:station:DISL:MBLA:1,2015-04-01T12:05:00Z,30.4367,-88.0117,0.5,19.79,2 
DISL,ioos:station:DISL:MBLA:1,2015-04-01T12:07:00Z,30.4367,-88.0117,0.5,19.77,2 
DISL,ioos:station:DISL:MBLA:1,2015-04-01T12:10:00Z,30.4367,-88.0117,0.5,19.66,2 
DISL,ioos:station:DISL:MBLA:1,2015-04-01T12:12:00Z,30.4367,-88.0117,0.5,19.46,2 
DISL,ioos:station:DISL:MBLA:1,2015-04-01T12:15:00Z,30.4367,-88.0117,0.5,19.42,2 
DISL,ioos:station:DISL:MBLA:1,2015-04-01T13:02:00Z,30.4367,-88.0117,0.5,19.69,2 
DISL,ioos:station:DISL:MBLA:1,2015-04-01T13:05:00Z,30.4367,-88.0117,0.5,19.84,2 
DISL,ioos:station:DISL:MBLA:1,2015-04-01T13:07:00Z,30.4367,-88.0117,0.5,19.78,2 
DISL,ioos:station:DISL:MBLA:1,2015-04-01T13:10:00Z,30.4367,-88.0117,0.5,19.62,2 
DISL,ioos:station:DISL:MBLA:1,2015-04-01T13:12:00Z,30.4367,-88.0117,0.5,19.54,2 
DISL,ioos:station:DISL:MBLA:1,2015-04-01T13:15:00Z,30.4367,-88.0117,0.5,19.56,2 
DISL,ioos:station:DISL:MBLA:1,2015-04-01T14:02:00Z,30.4367,-88.0117,0.5,19.78,2 
DISL,ioos:station:DISL:MBLA:1,2015-04-01T14:05:00Z,30.4367,-88.0117,0.5,19.88,2 
DISL,ioos:station:DISL:MBLA:1,2015-04-01T14:07:00Z,30.4367,-88.0117,0.5,19.88,2 
DISL,ioos:station:DISL:MBLA:1,2015-04-01T14:10:00Z,30.4367,-88.0117,0.5,19.68,2 
DISL,ioos:station:DISL:MBLA:1,2015-04-01T14:12:00Z,30.4367,-88.0117,0.5,19.58,2 
DISL,ioos:station:DISL:MBLA:1,2015-04-01T14:15:00Z,30.4367,-88.0117,0.5,19.75,2 
DISL,ioos:station:DISL:MBLA:1,2015-04-01T15:03:00Z,30.4367,-88.0117,0.5,19.72,2 
DISL,ioos:station:DISL:MBLA:1,2015-04-01T15:05:00Z,30.4367,-88.0117,0.5,19.82,2 
DISL,ioos:station:DISL:MBLA:1,2015-04-01T15:08:00Z,30.4367,-88.0117,0.5,19.91,2 
DISL,ioos:station:DISL:MBLA:1,2015-04-01T15:10:00Z,30.4367,-88.0117,0.5,19.74,2 
DISL,ioos:station:DISL:MBLA:1,2015-04-01T15:13:00Z,30.4367,-88.0117,0.5,19.79,2 
DISL,ioos:station:DISL:MBLA:1,2015-04-01T15:16:00Z,30.4367,-88.0117,0.5,20.26,2 
DISL,ioos:station:DISL:MBLA:1,2015-04-01T16:02:00Z,30.4367,-88.0117,0.5,19.49,2 
DISL,ioos:station:DISL:MBLA:1,2015-04-01T16:05:00Z,30.4367,-88.0117,0.5,19.78,2 
DISL,ioos:station:DISL:MBLA:1,2015-04-01T16:08:00Z,30.4367,-88.0117,0.5,19.8,2 
DISL,ioos:station:DISL:MBLA:1,2015-04-01T16:10:00Z,30.4367,-88.0117,0.5,19.67,2 
DISL,ioos:station:DISL:MBLA:1,2015-04-01T16:13:00Z,30.4367,-88.0117,0.5,19.62,2 
DISL,ioos:station:DISL:MBLA:1,2015-04-01T16:16:00Z,30.4367,-88.0117,0.5,20.83,2 
DISL,ioos:station:DISL:MBLA:1,2015-04-01T17:02:00Z,30.4367,-88.0117,0.5,19.93,2 
DISL,ioos:station:DISL:MBLA:1,2015-04-01T17:08:00Z,30.4367,-88.0117,0.5,19.83,2 
DISL,ioos:station:DISL:MBLA:1,2015-04-01T17:10:00Z,30.4367,-88.0117,0.5,19.76,2 
DISL,ioos:station:DISL:MBLA:1,2015-04-01T17:13:00Z,30.4367,-88.0117,0.5,20.75,2 
DISL,ioos:station:DISL:MBLA:1,2015-04-01T17:16:00Z,30.4367,-88.0117,0.5,21.0,2 
DISL,ioos:station:DISL:MBLA:1,2015-04-01T18:02:00Z,30.4367,-88.0117,0.5,19.94,2 
DISL,ioos:station:DISL:MBLA:1,2015-04-01T18:05:00Z,30.4367,-88.0117,0.5,19.95,2 
DISL,ioos:station:DISL:MBLA:1,2015-04-01T18:07:00Z,30.4367,-88.0117,0.5,20.41,2 
DISL,ioos:station:DISL:MBLA:1,2015-04-01T18:10:00Z,30.4367,-88.0117,0.5,20.84,2 
DISL,ioos:station:DISL:MBLA:1,2015-04-01T18:13:00Z,30.4367,-88.0117,0.5,20.98,2 
DISL,ioos:station:DISL:MBLA:1,2015-04-01T18:15:00Z,30.4367,-88.0117,0.5,21.0,2 
DISL,ioos:station:DISL:MBLA:1,2015-04-01T19:02:00Z,30.4367,-88.0117,0.5,20.0,2 
DISL,ioos:station:DISL:MBLA:1,2015-04-01T19:05:00Z,30.4367,-88.0117,0.5,20.4,2 
DISL,ioos:station:DISL:MBLA:1,2015-04-01T19:07:00Z,30.4367,-88.0117,0.5,20.87,2 
DISL,ioos:station:DISL:MBLA:1,2015-04-01T19:10:00Z,30.4367,-88.0117,0.5,21.01,2 
DISL,ioos:station:DISL:MBLA:1,2015-04-01T19:13:00Z,30.4367,-88.0117,0.5,21.08,2 
DISL,ioos:station:DISL:MBLA:1,2015-04-01T19:15:00Z,30.4367,-88.0117,0.5,21.21,2 
DISL,ioos:station:DISL:MBLA:1,2015-04-01T20:02:00Z,30.4367,-88.0117,0.5,20.06,2 
DISL,ioos:station:DISL:MBLA:1,2015-04-01T20:05:00Z,30.4367,-88.0117,0.5,20.66,2 
DISL,ioos:station:DISL:MBLA:1,2015-04-01T20:07:00Z,30.4367,-88.0117,0.5,21.12,2 
DISL,ioos:station:DISL:MBLA:1,2015-04-01T20:10:00Z,30.4367,-88.0117,0.5,21.22,2 
DISL,ioos:station:DISL:MBLA:1,2015-04-01T20:13:00Z,30.4367,-88.0117,0.5,21.25,2 
DISL,ioos:station:DISL:MBLA:1,2015-04-01T20:15:00Z,30.4367,-88.0117,0.5,21.29,2 
DISL,ioos:station:DISL:MBLA:1,2015-04-01T21:02:00Z,30.4367,-88.0117,0.5,19.95,2 
DISL,ioos:station:DISL:MBLA:1,2015-04-01T21:05:00Z,30.4367,-88.0117,0.5,20.42,2 
DISL,ioos:station:DISL:MBLA:1,2015-04-01T21:07:00Z,30.4367,-88.0117,0.5,20.69,2 
DISL,ioos:station:DISL:MBLA:1,2015-04-01T21:10:00Z,30.4367,-88.0117,0.5,21.11,2 
DISL,ioos:station:DISL:MBLA:1,2015-04-01T21:13:00Z,30.4367,-88.0117,0.5,21.41,2 
DISL,ioos:station:DISL:MBLA:1,2015-04-01T21:15:00Z,30.4367,-88.0117,0.5,21.48,2 
DISL,ioos:station:DISL:MBLA:1,2015-04-01T22:02:00Z,30.4367,-88.0117,0.5,19.83,2 
DISL,ioos:station:DISL:MBLA:1,2015-04-01T22:05:00Z,30.4367,-88.0117,0.5,20.3,2 
DISL,ioos:station:DISL:MBLA:1,2015-04-01T22:07:00Z,30.4367,-88.0117,0.5,20.76,2 
DISL,ioos:station:DISL:MBLA:1,2015-04-01T22:10:00Z,30.4367,-88.0117,0.5,20.98,2 
DISL,ioos:station:DISL:MBLA:1,2015-04-01T22:12:00Z,30.4367,-88.0117,0.5,21.16,2 
DISL,ioos:station:DISL:MBLA:1,2015-04-01T22:15:00Z,30.4367,-88.0117,0.5,21.28,2 
DISL,ioos:station:DISL:MBLA:1,2015-04-01T23:02:00Z,30.4367,-88.0117,0.5,19.55,2 
DISL,ioos:station:DISL:MBLA:1,2015-04-01T23:05:00Z,30.4367,-88.0117,0.5,20.47,2 
DISL,ioos:station:DISL:MBLA:1,2015-04-01T23:07:00Z,30.4367,-88.0117,0.5,20.84,2 
DISL,ioos:station:DISL:MBLA:1,2015-04-01T23:10:00Z,30.4367,-88.0117,0.5,20.92,2 
DISL,ioos:station:DISL:MBLA:1,2015-04-01T23:13:00Z,30.4367,-88.0117,0.5,21.01,2 
DISL,ioos:station:DISL:MBLA:1,2015-04-01T23:15:00Z,30.4367,-88.0117,0.5,21.03,2 
DISL,ioos:station:DISL:MBLA:1,2015-04-02T00:02:00Z,30.4367,-88.0117,0.5,20.46,2 
DISL,ioos:station:DISL:MBLA:1,2015-04-02T00:05:00Z,30.4367,-88.0117,0.5,20.63,2 
DISL,ioos:station:DISL:MBLA:1,2015-04-02T00:07:00Z,30.4367,-88.0117,0.5,20.68,2 
DISL,ioos:station:DISL:MBLA:1,2015-04-02T00:10:00Z,30.4367,-88.0117,0.5,20.89,2 
DISL,ioos:station:DISL:MBLA:1,2015-04-02T00:12:00Z,30.4367,-88.0117,0.5,20.88,2 
DISL,ioos:station:DISL:MBLA:1,2015-04-02T00:15:00Z,30.4367,-88.0117,0.5,20.89,2 
DISL,ioos:station:DISL:MBLA:1,2015-04-02T01:02:00Z,30.4367,-88.0117,0.5,19.62,2 
DISL,ioos:station:DISL:MBLA:1,2015-04-02T01:05:00Z,30.4367,-88.0117,0.5,20.27,2 
DISL,ioos:station:DISL:MBLA:1,2015-04-02T01:07:00Z,30.4367,-88.0117,0.5,20.74,2 
DISL,ioos:station:DISL:MBLA:1,2015-04-02T01:10:00Z,30.4367,-88.0117,0.5,20.83,2 
DISL,ioos:station:DISL:MBLA:1,2015-04-02T01:12:00Z,30.4367,-88.0117,0.5,20.85,2 
DISL,ioos:station:DISL:MBLA:1,2015-04-02T01:15:00Z,30.4367,-88.0117,0.5,20.87,2 
DISL,ioos:station:DISL:MBLA:1,2015-04-02T02:02:00Z,30.4367,-88.0117,0.5,19.61,2 
DISL,ioos:station:DISL:MBLA:1,2015-04-02T02:05:00Z,30.4367,-88.0117,0.5,20.47,2 
DISL,ioos:station:DISL:MBLA:1,2015-04-02T02:07:00Z,30.4367,-88.0117,0.5,20.7,2 
DISL,ioos:station:DISL:MBLA:1,2015-04-02T02:10:00Z,30.4367,-88.0117,0.5,20.8,2 
DISL,ioos:station:DISL:MBLA:1,2015-04-02T02:12:00Z,30.4367,-88.0117,0.5,20.81,2 
DISL,ioos:station:DISL:MBLA:1,2015-04-02T02:15:00Z,30.4367,-88.0117,0.5,20.8,2 
DISL,ioos:station:DISL:MBLA:1,2015-04-02T03:02:00Z,30.4367,-88.0117,0.5,19.53,2 
DISL,ioos:station:DISL:MBLA:1,2015-04-02T03:07:00Z,30.4367,-88.0117,0.5,20.58,2 
DISL,ioos:station:DISL:MBLA:1,2015-04-02T03:10:00Z,30.4367,-88.0117,0.5,20.81,2 
DISL,ioos:station:DISL:MBLA:1,2015-04-02T03:12:00Z,30.4367,-88.0117,0.5,20.83,2 
DISL,ioos:station:DISL:MBLA:1,2015-04-02T03:15:00Z,30.4367,-88.0117,0.5,20.8,2 
DISL,ioos:station:DISL:MBLA:1,2015-04-02T04:02:00Z,30.4367,-88.0117,0.5,19.25,2 
DISL,ioos:station:DISL:MBLA:1,2015-04-02T04:05:00Z,30.4367,-88.0117,0.5,19.73,2 
DISL,ioos:station:DISL:MBLA:1,2015-04-02T04:07:00Z,30.4367,-88.0117,0.5,20.33,2 
DISL,ioos:station:DISL:MBLA:1,2015-04-02T04:10:00Z,30.4367,-88.0117,0.5,20.53,2 
DISL,ioos:station:DISL:MBLA:1,2015-04-02T04:12:00Z,30.4367,-88.0117,0.5,20.81,2 
DISL,ioos:station:DISL:MBLA:1,2015-04-02T04:15:00Z,30.4367,-88.0117,0.5,20.83,2 
DISL,ioos:station:DISL:MBLA:1,2015-04-02T05:02:00Z,30.4367,-88.0117,0.5,19.21,2 
DISL,ioos:station:DISL:MBLA:1,2015-04-02T05:05:00Z,30.4367,-88.0117,0.5,20.38,2 
DISL,ioos:station:DISL:MBLA:1,2015-04-02T05:07:00Z,30.4367,-88.0117,0.5,20.55,2 
DISL,ioos:station:DISL:MBLA:1,2015-04-02T05:10:00Z,30.4367,-88.0117,0.5,20.64,2 
DISL,ioos:station:DISL:MBLA:1,2015-04-02T05:12:00Z,30.4367,-88.0117,0.5,20.7,2 
DISL,ioos:station:DISL:MBLA:1,2015-04-02T05:15:00Z,30.4367,-88.0117,0.5,20.7,2 
DISL,ioos:station:DISL:MBLA:1,2015-04-02T06:02:00Z,30.4367,-88.0117,0.5,18.97,2 
DISL,ioos:station:DISL:MBLA:1,2015-04-02T06:05:00Z,30.4367,-88.0117,0.5,20.12,2 
DISL,ioos:station:DISL:MBLA:1,2015-04-02T06:07:00Z,30.4367,-88.0117,0.5,20.43,2 
DISL,ioos:station:DISL:MBLA:1,2015-04-02T06:10:00Z,30.4367,-88.0117,0.5,20.58,2 
DISL,ioos:station:DISL:MBLA:1,2015-04-02T06:12:00Z,30.4367,-88.0117,0.5,20.61,2 
DISL,ioos:station:DISL:MBLA:1,2015-04-02T06:15:00Z,30.4367,-88.0117,0.5,20.63,2 
DISL,ioos:station:DISL:MBLA:1,2015-04-02T07:02:00Z,30.4367,-88.0117,0.5,19.8,2 
DISL,ioos:station:DISL:MBLA:1,2015-04-02T07:07:00Z,30.4367,-88.0117,0.5,20.35,2 
DISL,ioos:station:DISL:MBLA:1,2015-04-02T07:10:00Z,30.4367,-88.0117,0.5,20.5,2 
DISL,ioos:station:DISL:MBLA:1,2015-04-02T07:13:00Z,30.4367,-88.0117,0.5,20.66,2 
DISL,ioos:station:DISL:MBLA:1,2015-04-02T07:15:00Z,30.4367,-88.0117,0.5,20.68,2 
DISL,ioos:station:DISL:MBLA:1,2015-04-02T08:02:00Z,30.4367,-88.0117,0.5,20.49,2 
DISL,ioos:station:DISL:MBLA:1,2015-04-02T08:05:00Z,30.4367,-88.0117,0.5,20.64,2 
DISL,ioos:station:DISL:MBLA:1,2015-04-02T08:07:00Z,30.4367,-88.0117,0.5,20.67,2 
DISL,ioos:station:DISL:MBLA:1,2015-04-02T08:10:00Z,30.4367,-88.0117,0.5,20.63,2 
DISL,ioos:station:DISL:MBLA:1,2015-04-02T08:12:00Z,30.4367,-88.0117,0.5,20.61,2 
DISL,ioos:station:DISL:MBLA:1,2015-04-02T08:15:00Z,30.4367,-88.0117,0.5,20.61,2 
DISL,ioos:station:DISL:MBLA:1,2015-04-02T09:02:00Z,30.4367,-88.0117,0.5,20.64,2 
DISL,ioos:station:DISL:MBLA:1,2015-04-02T09:05:00Z,30.4367,-88.0117,0.5,20.66,2 
DISL,ioos:station:DISL:MBLA:1,2015-04-02T09:07:00Z,30.4367,-88.0117,0.5,20.63,2 
DISL,ioos:station:DISL:MBLA:1,2015-04-02T09:10:00Z,30.4367,-88.0117,0.5,20.55,2 
DISL,ioos:station:DISL:MBLA:1,2015-04-02T09:12:00Z,30.4367,-88.0117,0.5,20.53,2 
DISL,ioos:station:DISL:MBLA:1,2015-04-02T09:15:00Z,30.4367,-88.0117,0.5,20.53,2 
DISL,ioos:station:DISL:MBLA:1,2015-04-02T10:02:00Z,30.4367,-88.0117,0.5,20.71,2 
DISL,ioos:station:DISL:MBLA:1,2015-04-02T10:05:00Z,30.4367,-88.0117,0.5,20.79,2 
DISL,ioos:station:DISL:MBLA:1,2015-04-02T10:07:00Z,30.4367,-88.0117,0.5,20.66,2 
DISL,ioos:station:DISL:MBLA:1,2015-04-02T10:10:00Z,30.4367,-88.0117,0.5,20.56,2 
DISL,ioos:station:DISL:MBLA:1,2015-04-02T10:12:00Z,30.4367,-88.0117,0.5,20.53,2 
DISL,ioos:station:DISL:MBLA:1,2015-04-02T10:15:00Z,30.4367,-88.0117,0.5,20.53,2 
DISL,ioos:station:DISL:MBLA:1,2015-04-02T11:02:00Z,30.4367,-88.0117,0.5,20.45,2 
DISL,ioos:station:DISL:MBLA:1,2015-04-02T11:05:00Z,30.4367,-88.0117,0.5,20.81,2 
DISL,ioos:station:DISL:MBLA:1,2015-04-02T11:07:00Z,30.4367,-88.0117,0.5,20.78,2 
DISL,ioos:station:DISL:MBLA:1,2015-04-02T11:10:00Z,30.4367,-88.0117,0.5,20.58,2 
DISL,ioos:station:DISL:MBLA:1,2015-04-02T11:12:00Z,30.4367,-88.0117,0.5,20.41,2 
DISL,ioos:station:DISL:MBLA:1,2015-04-02T11:15:00Z,30.4367,-88.0117,0.5,20.36,2 
DISL,ioos:station:DISL:MBLA:1,2015-04-02T12:02:00Z,30.4367,-88.0117,0.5,20.37,2 
DISL,ioos:station:DISL:MBLA:1,2015-04-02T12:05:00Z,30.4367,-88.0117,0.5,20.84,2 
DISL,ioos:station:DISL:MBLA:1,2015-04-02T12:07:00Z,30.4367,-88.0117,0.5,20.86,2 
DISL,ioos:station:DISL:MBLA:1,2015-04-02T12:10:00Z,30.4367,-88.0117,0.5,20.43,2 
DISL,ioos:station:DISL:MBLA:1,2015-04-02T12:12:00Z,30.4367,-88.0117,0.5,20.37,2 
DISL,ioos:station:DISL:MBLA:1,2015-04-02T12:15:00Z,30.4367,-88.0117,0.5,20.38,2 
DISL,ioos:station:DISL:MBLA:1,2015-04-02T13:02:00Z,30.4367,-88.0117,0.5,19.84,2 
DISL,ioos:station:DISL:MBLA:1,2015-04-02T13:05:00Z,30.4367,-88.0117,0.5,20.76,2 
DISL,ioos:station:DISL:MBLA:1,2015-04-02T13:07:00Z,30.4367,-88.0117,0.5,20.8,2 
DISL,ioos:station:DISL:MBLA:1,2015-04-02T13:10:00Z,30.4367,-88.0117,0.5,20.52,2 
DISL,ioos:station:DISL:MBLA:1,2015-04-02T13:12:00Z,30.4367,-88.0117,0.5,20.49,2 
DISL,ioos:station:DISL:MBLA:1,2015-04-02T13:15:00Z,30.4367,-88.0117,0.5,20.49,2 
DISL,ioos:station:DISL:MBLA:1,2015-04-02T14:02:00Z,30.4367,-88.0117,0.5,19.82,2 
DISL,ioos:station:DISL:MBLA:1,2015-04-02T14:05:00Z,30.4367,-88.0117,0.5,20.62,2 
DISL,ioos:station:DISL:MBLA:1,2015-04-02T14:07:00Z,30.4367,-88.0117,0.5,20.74,2 
DISL,ioos:station:DISL:MBLA:1,2015-04-02T14:10:00Z,30.4367,-88.0117,0.5,20.58,2 
DISL,ioos:station:DISL:MBLA:1,2015-04-02T14:12:00Z,30.4367,-88.0117,0.5,20.55,2 
DISL,ioos:station:DISL:MBLA:1,2015-04-02T14:15:00Z,30.4367,-88.0117,0.5,20.57,2 
DISL,ioos:station:DISL:MBLA:1,2015-04-02T15:02:00Z,30.4367,-88.0117,0.5,19.99,2 
DISL,ioos:station:DISL:MBLA:1,2015-04-02T15:05:00Z,30.4367,-88.0117,0.5,20.73,2 
DISL,ioos:station:DISL:MBLA:1,2015-04-02T15:07:00Z,30.4367,-88.0117,0.5,20.69,2 
DISL,ioos:station:DISL:MBLA:1,2015-04-02T15:10:00Z,30.4367,-88.0117,0.5,20.68,2 
DISL,ioos:station:DISL:MBLA:1,2015-04-02T15:13:00Z,30.4367,-88.0117,0.5,20.69,2 
DISL,ioos:station:DISL:MBLA:1,2015-04-02T15:15:00Z,30.4367,-88.0117,0.5,20.72,2 
DISL,ioos:station:DISL:MBLA:1,2015-04-02T16:02:00Z,30.4367,-88.0117,0.5,21.01,2 
DISL,ioos:station:DISL:MBLA:1,2015-04-02T16:05:00Z,30.4367,-88.0117,0.5,20.93,2 
DISL,ioos:station:DISL:MBLA:1,2015-04-02T16:07:00Z,30.4367,-88.0117,0.5,20.85,2 
DISL,ioos:station:DISL:MBLA:1,2015-04-02T16:10:00Z,30.4367,-88.0117,0.5,20.84,2 
DISL,ioos:station:DISL:MBLA:1,2015-04-02T16:12:00Z,30.4367,-88.0117,0.5,20.88,2 
DISL,ioos:station:DISL:MBLA:1,2015-04-02T16:15:00Z,30.4367,-88.0117,0.5,20.93,2 
DISL,ioos:station:DISL:MBLA:1,2015-04-02T17:02:00Z,30.4367,-88.0117,0.5,21.14,2 
DISL,ioos:station:DISL:MBLA:1,2015-04-02T17:08:00Z,30.4367,-88.0117,0.5,21.04,2 
DISL,ioos:station:DISL:MBLA:1,2015-04-02T17:10:00Z,30.4367,-88.0117,0.5,21.11,2 
DISL,ioos:station:DISL:MBLA:1,2015-04-02T17:12:00Z,30.4367,-88.0117,0.5,21.14,2 
DISL,ioos:station:DISL:MBLA:1,2015-04-02T17:15:00Z,30.4367,-88.0117,0.5,21.15,2 
DISL,ioos:station:DISL:MBLA:1,2015-04-02T18:03:00Z,30.4367,-88.0117,0.5,21.11,2 
DISL,ioos:station:DISL:MBLA:1,2015-04-02T18:05:00Z,30.4367,-88.0117,0.5,21.14,2 
DISL,ioos:station:DISL:MBLA:1,2015-04-02T18:08:00Z,30.4367,-88.0117,0.5,21.16,2 
DISL,ioos:station:DISL:MBLA:1,2015-04-02T18:10:00Z,30.4367,-88.0117,0.5,21.25,2 
DISL,ioos:station:DISL:MBLA:1,2015-04-02T18:13:00Z,30.4367,-88.0117,0.5,21.34,2 
DISL,ioos:station:DISL:MBLA:1,2015-04-02T18:15:00Z,30.4367,-88.0117,0.5,21.43,2 
DISL,ioos:station:DISL:MBLA:1,2015-04-02T19:02:00Z,30.4367,-88.0117,0.5,20.73,2 
DISL,ioos:station:DISL:MBLA:1,2015-04-02T19:05:00Z,30.4367,-88.0117,0.5,21.13,2 
DISL,ioos:station:DISL:MBLA:1,2015-04-02T19:07:00Z,30.4367,-88.0117,0.5,21.31,2 
DISL,ioos:station:DISL:MBLA:1,2015-04-02T19:10:00Z,30.4367,-88.0117,0.5,21.4,2 
DISL,ioos:station:DISL:MBLA:1,2015-04-02T19:12:00Z,30.4367,-88.0117,0.5,21.68,2 
DISL,ioos:station:DISL:MBLA:1,2015-04-02T19:15:00Z,30.4367,-88.0117,0.5,21.74,2 
DISL,ioos:station:DISL:MBLA:1,2015-04-02T20:02:00Z,30.4367,-88.0117,0.5,20.74,2 
DISL,ioos:station:DISL:MBLA:1,2015-04-02T20:05:00Z,30.4367,-88.0117,0.5,21.13,2 
DISL,ioos:station:DISL:MBLA:1,2015-04-02T20:08:00Z,30.4367,-88.0117,0.5,21.28,2 
DISL,ioos:station:DISL:MBLA:1,2015-04-02T20:10:00Z,30.4367,-88.0117,0.5,21.5,2 
DISL,ioos:station:DISL:MBLA:1,2015-04-02T20:13:00Z,30.4367,-88.0117,0.5,21.56,2 
DISL,ioos:station:DISL:MBLA:1,2015-04-02T20:15:00Z,30.4367,-88.0117,0.5,21.67,2 
DISL,ioos:station:DISL:MBLA:1,2015-04-02T21:02:00Z,30.4367,-88.0117,0.5,21.08,2 
DISL,ioos:station:DISL:MBLA:1,2015-04-02T21:05:00Z,30.4367,-88.0117,0.5,21.42,2 
DISL,ioos:station:DISL:MBLA:1,2015-04-02T21:07:00Z,30.4367,-88.0117,0.5,21.59,2 
DISL,ioos:station:DISL:MBLA:1,2015-04-02T21:10:00Z,30.4367,-88.0117,0.5,21.71,2 
DISL,ioos:station:DISL:MBLA:1,2015-04-02T21:12:00Z,30.4367,-88.0117,0.5,21.85,2 
DISL,ioos:station:DISL:MBLA:1,2015-04-02T21:15:00Z,30.4367,-88.0117,0.5,21.84,2 
DISL,ioos:station:DISL:MBLA:1,2015-04-02T22:02:00Z,30.4367,-88.0117,0.5,20.73,2 
DISL,ioos:station:DISL:MBLA:1,2015-04-02T22:05:00Z,30.4367,-88.0117,0.5,21.49,2 
DISL,ioos:station:DISL:MBLA:1,2015-04-02T22:07:00Z,30.4367,-88.0117,0.5,21.73,2 
DISL,ioos:station:DISL:MBLA:1,2015-04-02T22:10:00Z,30.4367,-88.0117,0.5,21.78,2 
DISL,ioos:station:DISL:MBLA:1,2015-04-02T22:13:00Z,30.4367,-88.0117,0.5,21.93,2 
DISL,ioos:station:DISL:MBLA:1,2015-04-02T22:15:00Z,30.4367,-88.0117,0.5,21.96,2 
DISL,ioos:station:DISL:MBLA:1,2015-04-02T23:02:00Z,30.4367,-88.0117,0.5,20.84,2 
DISL,ioos:station:DISL:MBLA:1,2015-04-02T23:05:00Z,30.4367,-88.0117,0.5,21.31,2 
DISL,ioos:station:DISL:MBLA:1,2015-04-02T23:07:00Z,30.4367,-88.0117,0.5,21.8,2 
DISL,ioos:station:DISL:MBLA:1,2015-04-02T23:10:00Z,30.4367,-88.0117,0.5,21.93,2 
DISL,ioos:station:DISL:MBLA:1,2015-04-02T23:12:00Z,30.4367,-88.0117,0.5,21.96,2 
DISL,ioos:station:DISL:MBLA:1,2015-04-02T23:15:00Z,30.4367,-88.0117,0.5,21.97,2 
DISL,ioos:station:DISL:MBLA:1,2015-04-03T00:02:00Z,30.4367,-88.0117,0.5,20.8,2 
DISL,ioos:station:DISL:MBLA:1,2015-04-03T00:05:00Z,30.4367,-88.0117,0.5,21.3,2 
DISL,ioos:station:DISL:MBLA:1,2015-04-03T00:07:00Z,30.4367,-88.0117,0.5,21.75,2 
DISL,ioos:station:DISL:MBLA:1,2015-04-03T00:10:00Z,30.4367,-88.0117,0.5,21.88,2 
DISL,ioos:station:DISL:MBLA:1,2015-04-03T00:12:00Z,30.4367,-88.0117,0.5,21.95,2 
DISL,ioos:station:DISL:MBLA:1,2015-04-03T00:15:00Z,30.4367,-88.0117,0.5,21.95,2 
DISL,ioos:station:DISL:MBLA:1,2015-04-03T01:02:00Z,30.4367,-88.0117,0.5,20.64,2 
DISL,ioos:station:DISL:MBLA:1,2015-04-03T01:05:00Z,30.4367,-88.0117,0.5,21.43,2 
DISL,ioos:station:DISL:MBLA:1,2015-04-03T01:07:00Z,30.4367,-88.0117,0.5,21.88,2 
DISL,ioos:station:DISL:MBLA:1,2015-04-03T01:10:00Z,30.4367,-88.0117,0.5,21.88,2 
DISL,ioos:station:DISL:MBLA:1,2015-04-03T01:12:00Z,30.4367,-88.0117,0.5,21.89,2 
DISL,ioos:station:DISL:MBLA:1,2015-04-03T01:15:00Z,30.4367,-88.0117,0.5,21.88,2 
DISL,ioos:station:DISL:MBLA:1,2015-04-03T02:02:00Z,30.4367,-88.0117,0.5,20.97,2 